Location: Arboucave
(43.6130°N, 0.4343°W)
Time: 05:06:14
(UTC+00:00)

COSMO-SKYMED 1 - Pass Details

Date: 17 November 2025
Orbit: 579 x 581 km, 97.9° (Epoch: 04 December)

Event Time Altitude Azimuth Distance (km) Brightness Sun altitude
Exits shadow 18:57:10 25° 345° (NNW) 1,179 4.1 -25.7°
Maximum altitude 18:59:06 44° 289° (WNW) 813 3.5 -26.0°
Drops below altitude 10° 19:03:00 10° 217° (SW) 1,890 5.5 -26.7°
Sets 19:05:12 0° 210° (SSW) 2,784 6.3 -27.1°
